UmKA 1 (RS40S)
1 57172U 23091G   26140.58793997  .00003986  00000-0  18553-3 0  9998
2 57172  97.5063 199.3960 0012132 209.0088 151.0474 15.20460955159810
CubeBel-2 (EU11S)
1 57175U 23091K   26140.62803159  .00008271  00000-0  30122-3 0  9996
2 57175  97.5060 203.6120 0009630 203.1852 156.8955 15.28428468160090
RS-38S
1 57189U 23091Z   26140.58252666  .00011654  00000-0  34465-3 0  9990
2 57189  97.5097 209.5333 0008358 160.2259 199.9309 15.35048023160450
SONATE-2
1 59112U 24043Q   26140.32121229  .00027836  00000-0  39266-3 0  9991
2 59112  97.5516 289.0606 0005782 300.2927  59.7755 15.56552283123555
GRBBeta
1 60237U 24128C   26140.47596127  .00002855  00000-0  20338-3 0  9998
2 60237  61.9903 313.4738 0044452 128.9324 231.5745 15.06384176102095
Curium One
1 60242U 24128H   26140.46566927  .00006449  00000-0  37774-3 0  9993
2 60242  61.9792 303.9256 0043964 125.4498 235.0714 15.12018389102268
ROBUSTA-3A
1 60243U 24128J   26140.48136337  .00005794  00000-0  34820-3 0  9995
2 60243  61.9869 306.1890 0045285 122.7286 237.8187 15.11189952102231
CatSat
1 60246U 24125J   26140.31084422  .00041661  00000-0  60602-3 0  9994
2 60246  97.2108 352.5155 0021122 284.3766  75.5144 15.55386743103059
HYPERVIEW-1G (RS66S)
1 61772U 24199AP  26140.63200971  .00073321  00000-0  63067-3 0  9990
2 61772  97.2922  19.0988 0005985  41.2251 318.9461 15.69080505130345
AO-123
1 61781U 24199AY  26140.59832475  .00005479  00000-0  16199-3 0  9998
2 61781  97.3030   9.5215 0015415  53.1256 307.1398 15.35226798129693
JINJUSat 1B
1 63210U 25052A   26140.47038325  .00012161  00000-0  38919-3 0  9995
2 63210  97.4031  37.2040 0003881 149.5250 210.6218 15.32545680 65853
NUSHSAT 1
1 63211U 25052B   26140.23051461  .00014861  00000-0  44285-3 0  9998
2 63211  97.4006  37.4384 0003559 148.9486 211.1968 15.34770556 65857
TEVEL2-4
1 63213U 25052D   26140.26457720  .00013859  00000-0  42966-3 0  9991
2 63213  97.3930  36.6282 0002557 156.1906 203.9455 15.33531541 65833
TEVEL2-5
1 63214U 25052E   26140.47785421  .00013199  00000-0  41132-3 0  9998
2 63214  97.3929  36.7970 0002537 154.8696 205.2670 15.33379108 65862
TEVEL2-6
1 63215U 25052F   26140.22847571  .00013180  00000-0  41130-3 0  9995
2 63215  97.3931  36.5324 0002600 156.6352 203.5008 15.33334982 65820
TEVEL2-1
1 63217U 25052H   26140.44399940  .00012883  00000-0  40832-3 0  9990
2 63217  97.3904  36.4041 0002102 168.6405 191.4885 15.32845273 65845
TEVEL2-3
1 63218U 25052J   26140.50486140  .00012666  00000-0  40085-3 0  9996
2 63218  97.3905  36.4835 0002102 168.8046 191.3243 15.32895674 65859
TEVEL2-2
1 63219U 25052K   26140.24860769  .00013326  00000-0  42223-3 0  9991
2 63219  97.3906  36.2107 0002026 169.9217 190.2066 15.32846888 65818
TEVEL2-9
1 63237U 25052AD  26140.19071268  .00012317  00000-0  41408-3 0  9996
2 63237  97.3963  35.5868 0004414 227.4221 132.6648 15.30953767 65746
TEVEL2-7
1 63238U 25052AE  26139.24587484  .00009233  00000-0  31399-3 0  9994
2 63238  97.3973  34.5729 0004474 232.2001 127.8836 15.30658823 65592
TEVEL2-8
1 63239U 25052AF  26140.23441594  .00011552  00000-0  39200-3 0  9993
2 63239  97.3971  35.5358 0004476 228.5695 131.5162 15.30666020 65748
HYDRA-W
1 63490U 25052BL  26113.93882235  .05662091  24406-5  29537-2 0  9997
2 63490  97.3690  18.2798 0008685 203.5899 156.4993 16.20186780 62336
HADES-ICM (SO-125)
1 63492U 25052BN  26139.22363440  .02073343  39485-2  23686-2 0  9993
2 63492  97.3705  43.9782 0011715 191.1728 168.9297 16.09971905 66230
SPIRONE
1 66657U 25274H   26140.51736684  .00000992  00000-0  99691-4 0  9991
2 66657  97.7480  70.2075 0013714 104.2422 256.0322 14.93415996 26097
K-HERO
1 66660U 25274L   26140.52974846  .00001003  00000-0  99665-4 0  9995
2 66660  97.7487  70.3602 0015521 108.5385 251.7523 14.93839472 26104
SNUGLITE-III DURI
1 66661U 25274M   26140.25045678  .00000786  00000-0  79147-4 0  9998
2 66661  97.7485  70.1044 0016124 110.3358 249.9596 14.93892810 26061
SilverSat
1 66909U 98067XV  26113.44966717  .07226154  12288-4  11979-2 0  9998
2 66909  51.6027 190.0749 0007952 333.4666  26.5949 16.32457272 22308
SAKHACUBE-CHOLBON
1 67290U 25313AU  26140.20074502  .00006892  00000-0  28431-3 0  9997
2 67290  97.3936 215.5962 0010997  96.4279 263.8211 15.24315335 21712
RS95S (QMR-KWT-2)
1 67291U 25313AV  26140.47488598  .00010188  00000-0  40454-3 0  9993
2 67291  97.3936 215.9896 0010590  95.4048 264.8399 15.25477285 21762
Ten-Koh2
1 68261U 25241B   26140.07574198  .00004855  00000-0  21441-3 0  9998
2 68261  51.6584  93.3832 0006495  57.2154 302.9449 15.23497330 10627
JACK-002
1 68417U 26067B   26140.16836511  .00004741  00000-0  22977-3 0  9997
2 68417  97.4558  99.1173 0003312  53.8688 306.2852 15.19002449  7696
DISCO 2
1 68431U 26067R   26139.32625842  .00003202  00000-0  15810-3 0  9991
2 68431  97.4594  98.2775 0004463  93.4378 266.7367 15.18596803  7562
HADES-SA (SpinnyONE)
1 68446U 26067AG  26140.34839703  .00012401  00000-0  61180-3 0  9996
2 68446  97.4403  99.0872 0007979 152.4943 207.6715 15.18020351  7700
PARUS-6U1
1 68456U 26067AS  26140.16130880  .00003935  00000-0  20138-3 0  9997
2 68456  97.4544  98.9666 0006606 145.0344 215.1324 15.17188389  7687
SAL-E
1 68458U 26067AU  26140.62174302  .00005164  00000-0  26221-3 0  9992
2 68458  97.4470  99.3752 0006673 151.0894 209.0710 15.17316736  7757
FSI-SAT 2
1 68792U 26088A   26140.39279848  .00002178  00000-0  15098-3 0  9993
2 68792  97.5040 290.3613 0014194 196.4520 163.6249 15.06574047  4104
OrigamiSat 2
1 68795U 26088D   26140.63174084  .00002841  00000-0  18808-3 0  9998
2 68795  97.5048 290.6580 0016131 170.1097 190.0452 15.08026936  4147
ARICA 2
1 68796U 26088E   26140.56328414  .00003401  00000-0  22350-3 0  9999
2 68796  97.5031 290.5891 0016183 168.6666 191.4930 15.08163584  4131
WASEDA-SAT-ZERO-II
1 68797U 26088F   26140.36296551  .00004807  00000-0  31324-3 0  9996
2 68797  97.5034 290.3959 0016096 169.3664 190.7908 15.08271483  4109
MANGARO-II-Piscus
1 68798U 26088G   26140.35720469  .00003080  00000-0  20045-3 0  9996
2 68798  97.5041 290.4073 0019490 172.5821 187.5699 15.08546018  4108
IO-86
1 40931U          25360.30710720  .00000000  00000-0  12800-3 0    00
2 40931   6.0006 332.5373 0012733 338.8432   8.1437 14.79075515    01
LILIUM-4                
1 71922C 26067AC  26089.50133053 -.00014632  00000+0 -74472-3 0    04
2 71922  97.4497  49.1617 0004341   5.9603 355.7042 15.16896692    16
